Location: Arbocrest Acres
(39.2134°N, 84.4144°W)
Time: 14:43:53
(UTC+00:00)

Tiangong - Visible Passes

Search period start: 01 December 2022 00:00
Search period end: 11 December 2022 00:00
Orbit: 385 x 393 km, 41.5° (Epoch: 01 December)

Date Brightness Start Highest point End Pass type
(mag) Time Alt. Az. Time Alt. Az. Time Alt. Az.
01 Dec 1.2 00:48:31 10° W 00:49:05 14° W 00:49:05 14° W visible
01 Dec -2.3 23:50:17 10° WSW 23:53:29 86° N 23:53:41 77° ENE visible
02 Dec -1.9 22:52:07 10° WSW 22:55:15 65° SSE 22:58:13 11° ENE visible
03 Dec 0.3 00:29:07 10° W 00:30:32 23° WNW 00:30:32 23° WNW visible
03 Dec -2.0 23:30:46 10° W 23:33:55 63° N 23:35:01 36° ENE visible
05 Dec -0.9 00:09:31 10° WNW 00:11:45 38° NW 00:11:45 38° NW visible
05 Dec -1.8 23:11:05 10° W 23:14:13 54° N 23:16:11 20° ENE visible
06 Dec 1.2 00:48:07 10° WNW 00:48:29 13° WNW 00:48:29 13° WNW visible
06 Dec -2.1 23:49:41 10° WNW 23:52:51 63° N 23:52:55 63° NNE visible
07 Dec -1.9 22:51:12 10° WNW 22:54:20 55° N 22:57:22 11° E visible
08 Dec 0.2 00:28:10 10° WNW 00:29:40 25° W 00:29:40 25° W visible
08 Dec -2.2 23:29:39 10° WNW 23:32:50 85° NNE 23:34:11 31° ESE visible
10 Dec -0.9 00:08:06 10° W 00:11:06 38° SSW 00:11:07 38° SSW visible
10 Dec -1.7 23:09:25 10° WNW 23:12:33 62° SSW 23:15:43 10° ESE visible
